STARLINK-5857, 55946

Orbit data source: Space-Track

STARLINK-5857, 55946 is a payload satellite owned by SpaceX/Seattle (US) in LEO that was launched on Fri, 17 Mar 2023 UTC via an FALCON 9 launch vehicle from the Air Force Western Test Range (AFWTR). Payload-class satellites include a variety of spacecraft equipped with specific instruments for various scientific and technological missions. These include communications satellites like Starlink; space stations such as the ISS; scientific satellites like the Hubble; Earth observation satellites from companies like Planet Labs, Umbra, and HawkEye 360; GPS; miniature CubeSats for education and research; and military/defense satellites.

Loading next visibility...
Identifier
55946, 2023-037AJ
Orbit
LEO
Country
Flag of USUS
Related business
Manufacturer
SpaceX/Seattle
Mission
Operational Commercial Communications
Bus & Motor
STARLINK, Unknown motor
Mass
305 kg wet, ~290 kg dry
Launch date (UTC)
2023-03-17 (3 years ago)
Launch vehicle
FALCON 9
Launch site
Air Force Western Test Range (AFWTR)
Object type
Payload
Rocket body
Debris
Shape & HBR
Box + 1 Pan, 10.1 m
Radar Cross Section
11.087 m², Large (>1 m²)

Expand to show TLE details & history
Last TLE update: 11 hours ago

TLE from 11 hours ago
0 STARLINK-5857
1 55946U 23037AJ  25346.84451851  .00001864  00000-0  16390-3 0  9991
2 55946  69.9985 143.3413 0003077 271.2695  88.8112 14.98338569150960
Epoch: 2025-12-12T20:16Z
TLE epoch observation values (Epoch: 2025-12-12T20:16:06.399Z)
Latitude
0.00003°
Longitude
117.53434°
Altitude
574.409 km
Speed
7.574 km/s
True Right ascension
09h 33m 21s
True Declination
0° 00' 00"
Sunlit
Object was in full shadow at epoch
Visualization orbit readout
Latitude
Unknown
Longitude
Unknown
Altitude
Unknown
Speed
Unknown
Apparent Right ascension
Unknown
Apparent Declination
Unknown
Sunlit
N/A
Visualization observer readout
Local Sidereal Time
05:23:03
Azimuth
Unknown
Elevation
Unknown
Doppler factor
Unknown
Orbital elements
Apogee altitude
572.116 km
Perigee altitude
567.84 km
Semi-major axis
6,948.115 km
Eccentricity
0.00031
Inclination
69.9985°
RAAN
143.3413°
Arg. of periapsis
271.2695°
True anomaly
88.84645°
Mean anomaly
88.8112°
Eccentric anomaly
88.82883°
Mean motion
3.74751 °/min
Orbital period
96.06 mins
BSTAR
0.0001639
Loading maneuver chart data...
Computing Atmospheric mass density...
Loading historical data...
Loading historical data...
Loading historical data...
Loading historical data...
Loading historical data...
Loading historical data...
Loading historical data...

Documentation

Showing up to 5 results
|